www.pogodaiklimat.ru

Погода и климат >> Архив погоды >> Монголия >> Чойбалсан


ПОГОДА в Чойбалсане

  • Прогноз погоды в Чойбалсане
  • Монитор погоды в Чойбалсане

АРХИВ ПОГОДЫ в Чойбалсане

Время (UTC), дата Ветер
(напр.,м/с)
 
Видим.   Явления Облачность Т
(С)
Тd
(С)
f
(%)
Тe
(С)
Тes
(С)
Комфортность P
(гПа)
Po
(гПа)
Тmin
(С)
Tmax
(С)
R
(мм)
R24
(мм)
S
(см)
12 12.06 С 3 10 км 6/0
[Ac cuf Cs]
+21.6 +5.9 36 +22 +22 комфорт 1005.5 922.0 +23.5
15 12.06 С 2 10 км ясно +16.0 +5.9 51 +16 +16 1008.4 923.1
18 12.06 С 3 10 км ясно +12.9 +3.0 51 +12 +12 1010.9 924.4
21 12.06 СЗ 4 10 км 4/0
[Ci]
+11.8 +3.5 57 +10 +10 1011.8 924.9
00 13.06 С 8 10 км 1/0
[Ci]
+15.1 +2.6 43 +13 +14 1010.9 925.1 +11.4
03 13.06 С 6 10 км 3/1 1000 м
[Cu hum Ci]
+18.6 +4.0 38 +18 +24 1009.4 924.7
06 13.06 С 6
{12}
10 км 1/0
[Ci]
+21.0 +0.8 26 +21 +27 комфорт 1007.7 923.8
09 13.06 С 7 10 км ясно +21.7 -0.9 22 +21 +23 комфорт 1007.0 923.4
12 13.06 СВ 3
{11}
10 км ясно +19.2 +0.3 28 +20 +20 1008.8 924.4 +22.1
15 13.06 СВ 1 10 км ясно +13.2 +4.4 55 +14 +14 1012.0 925.6
18 13.06 СЗ 1 10 км ясно +11.2 +4.0 61 +11 +11 1013.4 926.3
21 13.06 ЮЗ 1 10 км 3/0
[Ci]
+9.1 +4.6 73 +9 +9 1014.5 926.9
00 14.06 СВ 1 10 км 1/0
[Ci]
+16.8 +5.7 48 +18 +26 1012.9 927.5 +9.1
03 14.06 В 2 10 км 3/0
[Ci]
+21.3 +3.9 32 +22 +37 комфорт 1011.2 927.1
06 14.06 СЗ 1 10 км 1/0
[Ci fib]
+22.9 +3.9 29 +23 +41 комфорт 1009.5 926.0
09 14.06 Ю 2 10 км ясно +23.1 +4.1 29 +23 +29 комфорт 1008.4 925.0
12 14.06 В 2 10 км ясно +21.7 +5.2 34 +22 +22 комфорт 1009.0 925.3 +24.2
15 14.06 ЮВ 2 10 км ясно +16.4 +6.8 53 +17 +17 1010.9 925.5
18 14.06 Ю 2 10 км 3/0
[Ci]
+13.2 +4.1 54 +13 +13 1012.0 925.6
21 14.06 Ю 1 10 км 8/0
[Cs]
+13.0 +3.4 52 +13 +14 1012.7 926.2
00 15.06 ЮВ 3 10 км 9/0
[Ac trans Cs]
+19.1 +7.2 46 +20 +24 1010.9 926.2 +12.1
03 15.06 ЮВ 5 10 км 9/0
[Ac trans Cs]
+23.0 +5.4 32 +23 +30 комфорт 1009.1 925.7
06 15.06 ЮВ 5 10 км 9/3 1000 м
[Cu hum Cs]
+25.8 +5.9 28 +25 +30 комфорт 1006.9 924.4
09 15.06 В 5 10 км 8/0
[Ac cuf Ci]
+25.6 +2.9 23 +24 +27 комфорт 1005.3 922.9
12 15.06 В 3 10 км 6/0
[Ac lent Ci]
+22.0 +4.6 32 +22 +22 комфорт 1006.2 922.8 +26.4
15 15.06 СВ 2 10 км 4/0
[Ac lent Ci ing]
+14.9 +3.7 47 +15 +15 1009.2 923.5
18 15.06 В 3 10 км 5/0
[Ac lent Ci fib]
+15.1 +0.5 37 +15 +15 1008.8 923.2
21 15.06 С 1 10 км 4/0
[Ci]
+10.3 +4.0 65 +10 +10 1010.5 923.4
00 16.06 ЮВ 5 10 км 9/0
[Ac trans Cs]
+16.7 +5.9 49 +16 +18 1008.6 923.5 +10.2
03 16.06 ЮВ 5 10 км 9/0
[Ac trans Cs]
+21.5 +4.6 33 +22 +28 комфорт 1007.1 923.5
06 16.06 ЮВ 5
{11}
10 км 9/9 1000 м
[Cu hum Ac As]
+22.4 +1.4 25 +22 +23 комфорт 1005.8 922.5
09 16.06 ЮВ 4 10 км 9/0
[Ac As]
+23.7 -2.0 18 +22 +24 комфорт 1004.5 921.7
12 16.06 В 1 10 км 9/0
[Ac As Ci]
+20.4 +0.8 27 +22 +22 комфорт 1005.0 921.2 +24.2
15 16.06 ЮВ 1 10 км 8/0
[Ac trans Cs]
+15.7 +1.8 39 +17 +17 1007.4 922.0
18 16.06 С 2 10 км 6/0
[Ac lent Ci]
+11.5 +3.0 56 +11 +11 1008.7 922.1
21 16.06 С 2 10 км 3/0
[Ac lent Cc]
+8.9 +3.3 68 +7 +7 1010.0 922.5
00 17.06 В 3 10 км ясно +16.1 +5.4 49 +16 +21 1007.5 922.3 +8.9
03 17.06 СВ 7 10 км 3/1 1000 м
[Cu hum Ci fib]
+22.4 +3.5 29 +22 +26 комфорт 1005.2 921.9
06 17.06 В 6
{13}
10 км 4/3 1000 м
[Cu hum Ci fib]
+26.3 +3.5 23 +25 +30 комфорт 1003.1 921.0
09 17.06 В 5
{13}
10 км 4/3 1000 м
[Cu hum Ac trans]
+27.2 +4.3 23 +26 +28 жарко 1002.0 920.3
12 17.06 СВ 4 10 км 8/0
[Ac lent]
+24.7 +4.4 27 +24 +24 комфорт 1003.3 920.7 +27.6
15 17.06 СВ 3 10 км 4/0
[Ac trans]
+17.9 +4.5 41 +18 +18 1006.9 922.2
18 17.06 С 1 10 км 5/0
[Ac trans]
+17.4 +6.9 50 +18 +18 1007.5 922.7
21 17.06 С 2 10 км 3/0
[Ac trans]
+17.4 +2.9 38 +18 +18 1008.2 923.3
00 18.06 С 2 10 км 4/0
[Ac trans Ci]
+21.9 +4.9 33 +22 +28 комфорт 1007.7 924.1 +15.9
03 18.06 В 3 10 км 5/1 1000 м
[Cu hum Cc]
+28.1 +5.8 24 +27 +38 жарко 1005.8 923.9
06 18.06 С 2 10 км 3/1 1000 м
[Cu hum Ci fib]
+28.8 +4.2 21 +27 +41 жарко 1004.6 923.0
09 18.06 С 2 10 км 3/1 1000 м
[Cu hum Ci fib]
+29.7 +2.9 18 +28 +33 жарко 1003.5 922.3
12 18.06 ЮЗ 2 10 км 1/0
[Ci fib]
+27.4 +4.4 23 +26 +26 жарко 1004.0 922.2 +30.0
15 18.06 ЮЗ 3 10 км ясно +19.2 +7.9 48 +20 +20 1006.8 922.5
18 18.06 З 4 10 км ясно +18.0 +7.4 50 +18 +18 1007.4 922.7
21 18.06 ЮЗ 4 10 км 3/0
[Ac trans]
+16.3 +7.0 54 +16 +16 1007.6 922.4
00 19.06 З 3 10 км 3/0
[Ac trans]
+21.7 +7.5 40 +23 +27 комфорт 1006.6 923.0 +16.0
03 19.06 СЗ 3 10 км 9/0
[Cs]
+28.4 +10.1 32 +29 +40 жарко 1004.4 922.7
06 19.06 З 3 10 км 9/5 1000 м
[Cu med, cong Ci]
+31.5 +8.5 24 +30 +36 жарко 1001.7 921.1

 

Местоположение метеостанции Чойбалсан (Монголия): широта 48.08 долгота 114.55 высота над уровнем моря 747 м.

В архиве по умолчанию представлена погода в Чойбалсане за последнюю неделю. Архивные данные за месяц целиком и за предыдущие месяцы, начиная с января 2011 года, Вы можете получить, выбрав интересующий диапазон дат из раскрывающегося списка и нажав кнопку "Ввод!".


*Определитесь, кто Вы:
робот инопланетянин человек

Внимание! Время в таблицах - всемирное. Для получения местного времени необходимо прибавить поправку, которая равна 8 ч.

Смотрите также архив погоды в соседних городах и на ближайших метеорологических станциях:

Погода в Матаде (Монголия) (130 км)
Погода в Дашбалбаре (Монголия) (164 км)
Погода в Шинэ-Барга-Юци (Внутренняя Монголия, Китай) (179 км)
Погода в Баруун-Урте (Монголия) (183 км)
Погода в Баян-Ову (Монголия) (185 км)
Погода в Соловьевске (Забайкальский край, Россия) (219 км)
Погода в Мангуте (Забайкальский край, Россия) (230 км)
Погода в Татаале (Монголия) (244 км)
Погода в Эрдэнэцагаане (Монголия) (250 км)
Погода в Кыре (Забайкальский край, Россия) (255 км)

Пояснения к столбцам:

Ветер - указаны скорость ветра в м/с - средняя за 10 мин, порывы в срок и между сроками (в фигурных скобках) и направление, откуда дует ветер: С - северный, СВ - северо-восточный, В - восточный, ЮВ - юго-восточный, Ю - южный, ЮЗ - юго-западный, З - западный, СЗ - северо-западный.
Видимость - горизонтальная дальность видимости в метрах или километрах. При видимости от 1 до 10 км при отсутствии осадков обычно наблюдается дымка, при ухудшении видимости до 1 км и менее - туман. В сухую погоду видимость может ухудшаться дымом, пылью или мглою.
Явления - указаны атмосферные явления, наблюдавшиеся в срок или в последний час перед сроком; фигурными скобками обозначены явления, наблюдавшиеся между сроками (за 1-3 часа до срока); квадратными скобками обозначены град или гололедные отложения с указанием их диаметра в мм.
Облачность - указаны через наклонную черту общая и нижняя облачность в баллах и высота нижней границы облаков в метрах; квадратными скобками обозначены формы облаков: Ci - перистые, Cs - перисто-слоистые, Cc - перисто-кучевые, Ac - высококучевые, As - высокослоистые, Sc - слоисто-кучевые, Ns - слоисто-дождевые, Cu - кучевые, Cb - кучево-дождевые. Подробнее классификацию облаков см. в Атласе облаков (PDF).
T - Температура воздуха - температура, измеренная на высоте 2 м над землей.
Td - Температура точки росы - температура, при понижении до которой содержащийся в воздухе водяной пар достигнет насыщения.
f - Относительная влажность воздуха - влажноcть воздуха, измеренная на высоте 2 м над землей.
Te - Эффективная температура - температура, которую ощущает одетый по сезону человек в тени. Характеристика душности погоды. При расчете учитывается влияние влажности воздуха и скорости ветра на теплоощущения человека.
Tes - Эффективная температура на солнце - температура, которую ощущает человек, с поправкой на солнечный нагрев. Характеристика знойности погоды. Зависит от высоты солнца над горизонтом, облачности и скорости ветра. Ночью, в пасмурную погоду, а также при ветре 12 м/с и более поправка равна нулю.
P - Атмосферное давление - приведенное к уровню моря атмосферное давление.
Po - Атмосферное давление - измеренное на уровне метеостанции атмосферное давление.
Tmin - Минимальная температура - минимум температуры воздуха на высоте 2 м над землей.
Tmax - Максимальная температура - максимум температуры воздуха на высоте 2 м над землей.
R - Количество осадков - Количество выпавших осадков за период времени, мм. При наведении курсора мыши на число - период времени, за который выпало указанное количество осадков.
R24 - Количество осадков - Количество выпавших осадков за 24 часа, мм.
S - Снежный покров - Высота снежного покрова, см. При наведении курсора мыши на число - состояние снежного покрова и степень покрытия местности в баллах.